CW1020 Weather Reports


Display with metric or nautical units.
time (UTC)temp
F
wind
direction
speed
MPH
gust
MPH
rain 1hr
in
rain 24hr
in
rain mn
in
humidity
%
barometer
mb
20260510234004 82 321 11.0 16.0 0.00 0.00 0.00 40 1016.8
20260510233503 82 321 12.0 16.0 0.00 0.00 0.00 40 1016.8
20260510233004 82 320 12.0 18.0 0.00 0.00 0.00 40 1016.7
20260510232503 82 320 11.0 18.0 0.00 0.00 0.00 40 1016.7
20260510232004 82 320 10.0 17.0 0.00 0.00 0.00 40 1016.7
20260510231503 82 320 11.0 16.0 0.00 0.00 0.00 39 1016.8
20260510231003 82 323 11.0 17.0 0.00 0.00 0.00 40 1016.8
20260510230504 82 320 11.0 16.0 0.00 0.00 0.00 39 1016.8
20260510230003 82 322 11.0 18.0 0.00 0.00 0.00 39 1016.8
20260510225504 82 322 12.0 16.0 0.00 0.00 0.00 39 1016.8
20260510225004 83 315 12.0 16.0 0.00 0.00 0.00 38 1016.8
20260510224503 83 318 11.0 18.0 0.00 0.00 0.00 38 1016.9
20260510224004 83 317 11.0 16.0 0.00 0.00 0.00 37 1016.9
20260510223503 83 323 11.0 14.0 0.00 0.00 0.00 38 1016.9
20260510223005 84 323 11.0 16.0 0.00 0.00 0.00 36 1016.9
20260510222503 84 320 10.0 17.0 0.00 0.00 0.00 35 1017.0
20260510222004 84 321 10.0 16.0 0.00 0.00 0.00 34 1017.1
20260510221503 84 314 9.0 13.0 0.00 0.00 0.00 35 1017.1
20260510221004 84 318 9.0 17.0 0.00 0.00 0.00 32 1017.0
20260510215504 85 323 8.0 15.0 0.00 0.00 0.00 34 1017.3
20260510215004 85 304 10.0 12.0 0.00 0.00 0.00 33 1017.5
20260510214004 84 314 9.0 15.0 0.00 0.00 0.00 33 1017.4
20260510213505 85 315 9.0 13.0 0.00 0.00 0.00 32 1017.5
20260510213003 85 327 9.0 13.0 0.00 0.00 0.00 29 1017.5
20260510212504 85 320 8.0 16.0 0.00 0.00 0.00 30 1017.4
20260510212003 86 314 8.0 12.0 0.00 0.00 0.00 30 1017.7
20260510211505 87 320 6.0 12.0 0.00 0.00 0.00 31 1017.9
20260510211005 90 325 6.0 11.0 0.00 0.00 0.00 15 1017.5
20260510210506 90 337 5.0 11.0 0.00 0.00 0.00 14 1017.6
20260510205505 89 347 5.0 9.0 0.00 0.00 0.00 15 1017.5
20260510205005 89 39 8.0 12.0 0.00 0.00 0.00 16 1017.5
20260510204504 89 36 8.0 14.0 0.00 0.00 0.00 15 1017.5
20260510204005 89 58 6.0 13.0 0.00 0.00 0.00 15 1017.5
20260510203504 89 78 6.0 10.0 0.00 0.00 0.00 15 1017.6
20260510202005 89 102 7.0 14.0 0.00 0.00 0.00 15 1017.6
20260510201504 89 75 6.0 13.0 0.00 0.00 0.00 16 1017.8
20260510201005 88 95 7.0 9.0 0.00 0.00 0.00 15 1017.7
20260510200505 88 98 8.0 14.0 0.00 0.00 0.00 14 1017.8
20260510200005 88 90 9.0 15.0 0.00 0.00 0.00 15 1017.8
20260510195504 88 107 9.0 12.0 0.00 0.00 0.00 16 1017.9
20260510195005 88 105 9.0 17.0 0.00 0.00 0.00 15 1017.8
20260510194505 88 108 9.0 13.0 0.00 0.00 0.00 16 1018.0
20260510194004 88 109 9.0 11.0 0.00 0.00 0.00 16 1018.0
20260510193505 88 102 8.0 15.0 0.00 0.00 0.00 16 1018.0
20260510193005 87 73 9.0 11.0 0.00 0.00 0.00 16 1018.0
20260510192505 87 98 9.0 14.0 0.00 0.00 0.00 15 1018.0
20260510192004 88 96 8.0 12.0 0.00 0.00 0.00 16 1018.1
20260510191004 87 83 10.0 14.0 0.00 0.00 0.00 16 1018.3
20260510190505 87 62 11.0 14.0 0.00 0.00 0.00 16 1018.2
20260510190005 87 74 11.0 14.0 0.00 0.00 0.00 16 1018.3
20260510185504 87 75 11.0 18.0 0.00 0.00 0.00 16 1018.1
20260510185005 87 90 12.0 14.0 0.00 0.00 0.00 17 1018.2
20260510184505 87 96 12.0 19.0 0.00 0.00 0.00 16 1018.2
20260510184005 87 101 13.0 22.0 0.00 0.00 0.00 16 1018.2
20260510183505 86 91 13.0 17.0 0.00 0.00 0.00 16 1018.1
20260510183005 87 105 12.0 22.0 0.00 0.00 0.00 16 1018.1
20260510182505 86 83 12.0 17.0 0.00 0.00 0.00 17 1018.2
20260510182005 86 105 12.0 16.0 0.00 0.00 0.00 16 1018.1
20260510181005 86 103 9.0 20.0 0.00 0.00 0.00 17 1018.0
20260510180505 86 57 6.0 11.0 0.00 0.00 0.00 18 1018.1
20260510175504 84 355 2.0 4.0 0.00 0.00 0.00 26 1018.0
20260510175005 83 337 2.0 5.0 0.00 0.00 0.00 32 1018.1
20260510174505 83 55 2.0 2.0 0.00 0.00 0.00 32 1018.2
20260510174004 81 48 1.0 9.0 0.00 0.00 0.00 30 1018.1
20260510173505 80 299 2.0 3.0 0.00 0.00 0.00 35 1018.3
20260510173005 80 329 2.0 6.0 0.00 0.00 0.00 37 1018.2
20260510172505 79 311 1.0 4.0 0.00 0.00 0.00 38 1018.3
20260510172005 78 308 1.0 4.0 0.00 0.00 0.00 37 1018.3
20260510171505 77 305 1.0 3.0 0.00 0.00 0.00 40 1018.3
20260510171004 77 308 1.0 3.0 0.00 0.00 0.00 42 1018.4
20260510170505 76 337 1.0 3.0 0.00 0.00 0.00 42 1018.3
20260510170005 76 338 1.0 2.0 0.00 0.00 0.00 43 1018.4
20260510165505 75 359 1.0 3.0 0.00 0.00 0.00 44 1018.4
20260510165005 74 47 2.0 4.0 0.00 0.00 0.00 45 1018.3
20260510164505 74 30 1.0 4.0 0.00 0.00 0.00 46 1018.3
20260510164005 73 32 1.0 3.0 0.00 0.00 0.00 46 1018.4
20260510163005 72 35 2.0 4.0 0.00 0.00 0.00 47 1018.4
20260510162506 71 25 1.0 4.0 0.00 0.00 0.00 49 1018.5
20260510162004 71 345 1.0 2.0 0.00 0.00 0.00 50 1018.5
20260510161005 70 341 1.0 4.0 0.00 0.00 0.00 50 1018.2
20260510160505 70 21 0.0 3.0 0.00 0.00 0.00 50 1018.3
20260510160005 69 45 1.0 1.0 0.00 0.00 0.00 51 1018.2
20260510155505 69 69 0.0 3.0 0.00 0.00 0.00 51 1018.3
20260510155005 68 0 0.0 0.0 0.00 0.00 0.00 52 1018.3
20260510154005 69 0 0.0 0.0 0.00 0.00 0.00 50 1018.4
20260510153505 68 0 0.0 0.0 0.00 0.00 0.00 51 1018.4
20260510153005 67 0 0.0 0.0 0.00 0.00 0.00 50 1018.4
20260510151505 65 0 0.0 0.0 0.00 0.00 0.00 53 1018.4
20260510151005 64 162 0.0 1.0 0.00 0.00 0.00 53 1018.4
20260510150506 63 162 0.0 1.0 0.00 0.00 0.00 55 1018.5
20260510150006 63 0 0.0 0.0 0.00 0.00 0.00 56 1018.4
20260510145505 62 0 0.0 0.0 0.00 0.00 0.00 58 1018.4
20260510145005 60 0 0.0 0.0 0.00 0.00 0.00 60 1018.5
20260510144505 59 0 0.0 0.0 0.00 0.00 0.00 61 1018.5
20260510144005 59 161 0.0 1.0 0.00 0.00 0.00 62 1018.5
20260510142503 57 170 0.0 1.0 0.00 0.00 0.00 63 1018.0
20260510142002 57 170 0.0 1.0 0.00 0.00 0.00 63 1018.0
20260510140503 57 170 0.0 1.0 0.00 0.00 0.00 63 1018.0
20260510140003 57 170 0.0 1.0 0.00 0.00 0.00 63 1018.0
20260510135503 57 170 0.0 1.0 0.00 0.00 0.00 63 1018.0
20260510135002 57 170 0.0 1.0 0.00 0.00 0.00 63 1018.0
20260510134503 57 170 0.0 1.0 0.00 0.00 0.00 63 1018.0
20260510132503 57 170 0.0 1.0 0.00 0.00 0.00 63 1018.0
20260510132002 57 170 0.0 1.0 0.00 0.00 0.00 63 1018.0
20260510131503 57 170 0.0 1.0 0.00 0.00 0.00 63 1018.0
20260510131002 57 170 0.0 1.0 0.00 0.00 0.00 63 1018.0
20260510130503 57 170 0.0 1.0 0.00 0.00 0.00 63 1018.0
20260510130003 57 170 0.0 1.0 0.00 0.00 0.00 63 1018.0
20260510125503 57 170 0.0 1.0 0.00 0.00 0.00 63 1018.0
20260510125002 57 170 0.0 1.0 0.00 0.00 0.00 63 1018.0
20260510124503 57 170 0.0 1.0 0.00 0.00 0.00 63 1018.0
20260510124004 57 170 0.0 1.0 0.00 0.00 0.00 63 1018.0
20260510123503 57 170 0.0 1.0 0.00 0.00 0.00 63 1018.0
20260510123002 57 170 0.0 1.0 0.00 0.00 0.00 63 1018.0
20260510122003 57 170 0.0 1.0 0.00 0.00 0.00 63 1018.0
20260510121002 57 170 0.0 1.0 0.00 0.00 0.00 63 1018.0
20260510120503 57 170 0.0 1.0 0.00 0.00 0.00 63 1018.0
20260510120002 57 170 0.0 1.0 0.00 0.00 0.00 63 1018.0
20260510115503 57 170 0.0 1.0 0.00 0.00 0.00 63 1018.0
20260510115002 57 170 0.0 1.0 0.00 0.00 0.00 63 1018.0
20260510114503 57 170 0.0 1.0 0.00 0.00 0.00 63 1018.0
20260510114002 57 170 0.0 1.0 0.00 0.00 0.00 63 1018.0
20260510113503 57 170 0.0 1.0 0.00 0.00 0.00 63 1018.0
20260510113003 57 170 0.0 1.0 0.00 0.00 0.00 63 1018.0
20260510112004 57 170 0.0 1.0 0.00 0.00 0.00 63 1018.0
20260510111502 57 170 0.0 1.0 0.00 0.00 0.00 63 1018.0
20260510111003 57 170 0.0 1.0 0.00 0.00 0.00 63 1018.0
20260510110502 57 170 0.0 1.0 0.00 0.00 0.00 63 1018.0
20260510104003 57 170 0.0 1.0 0.00 0.00 0.00 63 1018.0
20260510103503 57 170 0.0 1.0 0.00 0.00 0.00 63 1018.0
20260510103003 57 170 0.0 1.0 0.00 0.00 0.00 63 1018.0
20260510102503 57 170 0.0 1.0 0.00 0.00 0.00 63 1018.0
20260510102003 57 170 0.0 1.0 0.00 0.00 0.00 63 1018.0
20260510101503 57 170 0.0 1.0 0.00 0.00 0.00 63 1018.0
20260510101003 57 170 0.0 1.0 0.00 0.00 0.00 63 1018.0
20260510095503 57 170 0.0 1.0 0.00 0.00 0.00 63 1018.0
20260510094503 57 170 0.0 1.0 0.00 0.00 0.00 63 1018.0
20260510094002 57 170 0.0 1.0 0.00 0.00 0.00 63 1018.0
20260510093503 57 170 0.0 1.0 0.00 0.00 0.00 63 1018.0
20260510092503 57 170 0.0 1.0 0.00 0.00 0.00 63 1018.0
20260510092002 57 170 0.0 1.0 0.00 0.00 0.00 63 1018.0
20260510091503 57 170 0.0 1.0 0.00 0.00 0.00 63 1018.0
20260510091002 57 170 0.0 1.0 0.00 0.00 0.00 63 1018.0
20260510090503 57 170 0.0 1.0 0.00 0.00 0.00 63 1018.0
20260510090002 57 170 0.0 1.0 0.00 0.00 0.00 63 1018.0
20260510085503 57 170 0.0 1.0 0.00 0.00 0.00 63 1018.0
20260510085002 57 170 0.0 1.0 0.00 0.00 0.00 63 1018.0
20260510084503 57 170 0.0 1.0 0.00 0.00 0.00 63 1018.0
20260510084003 57 170 0.0 1.0 0.00 0.00 0.00 63 1018.0
20260510083503 57 170 0.0 1.0 0.00 0.00 0.00 63 1018.0
20260510083003 57 170 0.0 1.0 0.00 0.00 0.00 63 1018.0
20260510082503 57 170 0.0 1.0 0.00 0.00 0.00 63 1018.0
20260510081003 57 170 0.0 1.0 0.00 0.00 0.00 63 1018.0
20260510080502 57 170 0.0 1.0 0.00 0.00 0.00 63 1018.0
20260510080003 57 170 0.0 1.0 0.00 0.00 0.00 63 1018.0
20260510075502 57 170 0.0 1.0 0.00 0.00 0.00 63 1018.0
20260510075003 57 170 0.0 1.0 0.00 0.00 0.00 63 1018.0
20260510074503 57 170 0.0 1.0 0.00 0.00 0.00 63 1018.0
20260510074003 57 170 0.0 1.0 0.00 0.00 0.00 63 1018.0
20260510073503 57 170 0.0 1.0 0.00 0.00 0.00 63 1018.0
20260510072503 57 170 0.0 1.0 0.00 0.00 0.00 63 1018.0
20260510072003 57 171 0.0 1.0 0.00 0.00 0.00 63 1017.9
20260510071503 57 0 0.0 0.0 0.00 0.00 0.00 63 1017.9
20260510071003 57 0 0.0 0.0 0.00 0.00 0.00 63 1017.9
20260510070503 57 0 0.0 0.0 0.00 0.00 0.00 63 1018.0
20260510070004 58 171 0.0 1.0 0.00 0.00 0.00 63 1018.1
20260510065503 58 0 0.0 0.0 0.00 0.00 0.00 63 1018.0
20260510065004 58 171 0.0 1.0 0.00 0.00 0.00 63 1018.0
20260510064503 58 171 0.0 1.0 0.00 0.00 0.00 63 1018.0
20260510064003 58 172 0.0 2.0 0.00 0.00 0.00 64 1018.0
20260510063503 58 0 0.0 0.0 0.00 0.00 0.00 64 1018.0
20260510062003 59 0 0.0 0.0 0.00 0.00 0.00 62 1018.0
20260510061503 59 0 0.0 0.0 0.00 0.00 0.00 61 1018.0
20260510061003 60 0 0.0 0.0 0.00 0.00 0.00 59 1018.0
20260510060503 60 0 0.0 0.0 0.00 0.00 0.00 58 1018.1
20260510055503 60 158 1.0 4.0 0.00 0.00 0.00 56 1017.9
20260510055002 60 162 1.0 2.0 0.00 0.00 0.00 56 1018.0
20260510054503 60 165 1.0 3.0 0.00 0.00 0.00 57 1017.9
20260510053004 61 162 0.0 3.0 0.00 0.00 0.00 57 1018.0
20260510052503 61 0 0.0 0.0 0.00 0.00 0.00 58 1017.9
20260510052003 61 0 0.0 0.0 0.00 0.00 0.00 58 1017.8
20260510051503 61 0 0.0 0.0 0.00 0.00 0.00 57 1017.9
20260510051003 62 0 0.0 0.0 0.00 0.00 0.00 57 1017.9
20260510050503 62 173 1.0 2.0 0.00 0.00 0.00 57 1017.9
20260510050003 62 170 1.0 4.0 0.00 0.00 0.00 57 1017.9
20260510045503 62 170 0.0 4.0 0.00 0.00 0.00 56 1018.0
20260510045003 63 0 0.0 0.0 0.00 0.00 0.00 56 1017.8
20260510044503 63 0 0.0 0.0 0.00 0.00 0.00 55 1017.9
20260510044003 63 0 0.0 0.0 0.00 0.00 0.00 55 1017.8
20260510043503 64 0 0.0 0.0 0.00 0.00 0.00 55 1017.7
20260510043003 64 0 0.0 0.0 0.00 0.00 0.00 54 1017.6
20260510042504 64 0 0.0 0.0 0.00 0.00 0.00 54 1017.6
20260510042003 65 0 0.0 0.0 0.00 0.00 0.00 54 1017.5
20260510041503 65 0 0.0 0.0 0.00 0.00 0.00 54 1017.5
20260510041003 65 0 1.0 0.0 0.00 0.00 0.00 54 1017.4
20260510040503 66 252 2.0 3.0 0.00 0.00 0.00 54 1017.6
20260510040003 66 252 3.0 3.0 0.00 0.00 0.00 54 1017.5
20260510035503 66 259 3.0 4.0 0.00 0.00 0.00 53 1017.5
20260510035004 66 267 3.0 4.0 0.00 0.00 0.00 52 1017.4
20260510034503 67 263 3.0 4.0 0.00 0.00 0.00 52 1017.4
20260510034003 67 260 3.0 7.0 0.00 0.00 0.00 51 1017.5
20260510033503 67 252 4.0 5.0 0.00 0.00 0.00 50 1017.4
20260510033005 67 253 4.0 5.0 0.00 0.00 0.00 50 1017.4
20260510032503 68 249 5.0 5.0 0.00 0.00 0.00 49 1017.3
20260510032003 68 260 7.0 7.0 0.00 0.00 0.00 49 1017.2
20260510031503 68 269 8.0 10.0 0.00 0.00 0.00 48 1017.1
20260510031003 68 261 6.0 10.0 0.00 0.00 0.00 47 1016.9
20260510030503 69 266 6.0 7.0 0.00 0.00 0.00 47 1017.0
20260510030004 69 257 6.0 9.0 0.00 0.00 0.00 46 1016.8
20260510025504 69 268 6.0 8.0 0.00 0.00 0.00 46 1016.8
20260510024005 70 250 6.0 9.0 0.00 0.00 0.00 46 1016.8
20260510023503 70 249 3.0 8.0 0.00 0.00 0.00 47 1016.8
20260510023004 70 259 3.0 10.0 0.00 0.00 0.00 49 1016.7
20260510022503 70 262 5.0 6.0 0.00 0.00 0.00 50 1016.7
20260510022003 70 271 4.0 9.0 0.00 0.00 0.00 49 1016.7
20260510021503 70 315 4.0 8.0 0.00 0.00 0.00 48 1016.7
20260510021003 71 313 5.0 6.0 0.00 0.00 0.00 48 1016.5
20260510020503 71 290 6.0 10.0 0.00 0.00 0.00 48 1016.5
20260510020004 71 301 7.0 10.0 0.00 0.00 0.00 48 1016.5
20260510015503 71 305 8.0 10.0 0.00 0.00 0.00 48 1016.4
20260510015003 72 305 8.0 12.0 0.00 0.00 0.00 48 1016.4
20260510014504 72 311 7.0 14.0 0.00 0.00 0.00 48 1016.4
20260510014003 72 306 8.0 10.0 0.00 0.00 0.00 48 1016.4
20260510013503 72 310 8.0 11.0 0.00 0.00 0.00 48 1016.2
20260510013003 72 301 9.0 13.0 0.00 0.00 0.00 48 1016.2
20260510012504 72 299 9.0 12.0 0.00 0.00 0.00 48 1016.2
20260510012003 72 318 9.0 13.0 0.00 0.00 0.00 47 1016.2
20260510011504 73 307 9.0 14.0 0.00 0.00 0.00 47 1016.2
20260510011003 73 312 8.0 13.0 0.00 0.00 0.00 46 1016.2
20260510010503 73 312 9.0 14.0 0.00 0.00 0.00 46 1016.2
20260510010004 73 313 9.0 12.0 0.00 0.00 0.00 45 1016.2
20260510005503 73 314 9.0 16.0 0.00 0.00 0.00 45 1016.1
20260510004004 74 298 9.0 12.0 0.00 0.00 0.00 45 1016.1
20260510003503 74 316 8.0 13.0 0.00 0.00 0.00 44 1016.0
20260510003004 74 315 10.0 13.0 0.00 0.00 0.00 44 1016.1
20260510002503 74 313 12.0 14.0 0.00 0.00 0.00 43 1016.1
20260510002003 74 311 11.0 15.0 0.00 0.00 0.00 42 1016.1
20260510001504 74 319 11.0 15.0 0.00 0.00 0.00 42 1016.0
20260510001003 75 310 11.0 15.0 0.00 0.00 0.00 42 1016.1
20260510000504 74 311 11.0 17.0 0.00 0.00 0.00 42 1016.1
20260510000004 74 315 11.0 16.0 0.00 0.00 0.00 42 1016.1
20260509235503 74 315 12.0 17.0 0.00 0.00 0.00 42 1016.1
20260509235003 75 320 11.0 18.0 0.00 0.00 0.00 42 1016.1
20260509234503 74 308 11.0 17.0 0.00 0.00 0.00 42 1016.0